494  
ASUS41 KPHI 231812  
RWRPHI  
 
REGIONAL WEATHER ROUNDUP  
NATIONAL WEATHER SERVICE MOUNT HOLLY NJ  
100 PM EST SAT JAN 23 2021  
 
NOTE: "FAIR" INDICATES FEW OR NO CLOUDS BELOW 12,000 FEET WITH NO  
SIGNIFICANT WEATHER AND/OR S TO VISIBILITY
.  
 
* = STATION DOES NOT REPORT PRECIPITATION (E.G. RAIN, SNOW, ETC.)  
OR FOG.
 
 
NJZ015>026-231900-  
SOUTHERN NEW JERSEY  
 
CITY SKY/WX TMP DP RH WIND PRES REMARKS
 
POMONA SUNNY 34 8 33 NW23G44 30.09F WCI 22  
6HR MIN TEMP: 30; 6HR MAX TEMP: 35;  
 
WILDWOOD* MOSUNNY 33 9 36 NW18G29 30.14F WCI 22  
MILLVILLE MOSUNNY 33 6 32 NW20G37 30.13F WCI 21  
MOUNT HOLLY MOSUNNY 33 9 36 NW20G33 30.11F WCI 21  
TRENTON MOSUNNY 31 7 36 NW18G28 30.08F WCI 19  
6HR MIN TEMP: 27; 6HR MAX TEMP: 32;  
 

 
NJZ001>014-231900-  
NORTHERN NEW JERSEY  
 
CITY SKY/WX TMP DP RH WIND PRES REMARKS
 
SUSSEX PTSUNNY 28 6 39 W17G26 30.06S WCI 16  
ANDOVER* N/A 27 8 44 MISG 30.06S  
MORRISTOWN PTSUNNY 30 12 47 NW16G24 30.07F WCI 19  
NEWARK PTSUNNY 33 8 35 W26G33 30.06F WCI 20  
TETERBORO CLOUDY 29 10 45 NW18G28 30.05S WCI 16  
CALDWELL CLOUDY 33 6 32 NW21G29 30.06S WCI 21  
SOMERVILLE MOSUNNY 32 7 35 NW23G33 30.07F WCI 19  
ALLAIRE* MOSUNNY 33 8 35 NW21G30 30.06S WCI 21  
TOMS RIVER* MOSUNNY 32 7 35 NW25G37 30.07F WCI 19  
 

 
PAZ043-044-047-054-055-060>062-066>071-231900-  
EASTERN PENNSYLVANIA  
 
CITY SKY/WX TMP DP RH WIND PRES REMARKS
 
PHILADELPHIA MOSUNNY 31 7 36 NW24G38 30.14F WCI 17  
6HR MIN TEMP: 29; 6HR MAX TEMP: 33;  
 
NORTH PHILA MOSUNNY 33 8 35 NW23G33 30.13F WCI 21  
BLUE BELL* PTSUNNY 30 9 41 NW15G24 30.12F WCI 19  
DOYLESTOWN MOSUNNY 31 6 35 NW14G31 30.09F WCI 21  
QUAKERTOWN* MOSUNNY 30 5 34 W15G24 30.10F WCI 19  
PERKASIE* FAIR 30 5 34 NW21G28 30.10S WCI 17  
POTTSTOWN CLOUDY 27 8 44 NW20G29 30.15S WCI 13  
LANCASTER CLOUDY 31 8 38 NW23G30 30.16F WCI 18  
COATESVILLE PTSUNNY 28 9 43 NW14G23 30.14S WCI 17  
WEST CHESTER MOCLDY 32 9 37 W17G29 30.13S WCI 21  
READING PTSUNNY 29 10 45 NW25G33 30.14F WCI 14  
6HR MIN TEMP: 27; 6HR MAX TEMP: 31; 6HR PCP: TRACE;  
 
ALLENTOWN MOSUNNY 31 6 35 W15G28 30.11F WCI 20  
6HR MIN TEMP: 24; 6HR MAX TEMP: 31;  
 
QN CITY/ALNTWN PTSUNNY 30 7 37 W16G23 30.14S WCI 19  
MOUNT POCONO FLURRIES 19 8 62 NW26G36 29.98R WCI 1  
6HR MIN TEMP: 15; 6HR MAX TEMP: 19; 6HR PCP: TRACE;  
 
HAZLETON CLOUDY 27 5 39 NW15G23 30.07S WCI 15  
LEHIGHTON CLOUDY 30 9 40 NW10G18 30.13F WCI 21  
WILKES BARRE CLOUDY 25 10 53 NW17 30.10S WCI 12  
 

 
DEZALL-MDZ008-012-015-019-020-231900-  
DELAWARE AND EASTERN MARYLAND  
 
CITY SKY/WX TMP DP RH WIND PRES REMARKS
 
WILMINGTON CLOUDY 31 8 38 NW22G32 30.17F WCI 18  
6HR MIN TEMP: 29; 6HR MAX TEMP: 34;  
 
CHESWOLD PTCLDY 34 9 35 NW12G25 30.17S WCI 25  
GEORGETOWN SUNNY 35 5 28 NW16G28 30.15F WCI 25  
6HR MIN TEMP: 32; 6HR MAX TEMP: 35; 6HR PCP: TRACE;  
 
EASTON MOSUNNY 36 7 30 NW17G29 30.23F WCI 25  
STEVENSVILLE SUNNY 34 9 35 NW16G28 30.21S WCI 23  
PATUXENT MOSUNNY 35 8 32 NW21G30 30.21F WCI 24  
OCEAN CITY SUNNY 35 7 31 NW18G30 30.15F WCI 24  
WALLOPS ISLAND SUNNY 35 10 35 NW18G31 30.16S WCI 24  
CAMBRIDGE SUNNY 34 5 29 NW21G30 30.19F WCI 22  
SALISBURY SUNNY N/A N/A N/A NW18G29 30.17F  
 

 
PAZ001-021-NYZ056-072-MDZ011-DCZ001-231900-  
OTHER NEARBY LOCATIONS  
 
CITY SKY/WX TMP DP RH WIND PRES REMARKS
 
HARRISBURG PTSUNNY 32 9 38 NW21G31 30.19F WCI 20  
STATE COLLEGE LGT SNOW 21 10 63 NW9G18 30.20S WCI 11  
WILLIAMSPORT CLOUDY 28 7 41 NW14 30.17F WCI 17  
BINGHAMTON LGT SNOW 18 11 74 NW14G22 30.04S WCI 4  
NEW YORK CITY PTSUNNY 31 8 38 NW9G24 30.06S WCI 23  
BALTIMORE MOSUNNY 34 4 28 NW13G24 30.20F WCI 25  
WASHINGTON DC MOSUNNY 35 6 29 NW15G24 30.24F WCI 25  
 

 
 
 
CLICK HERE TO GO TO PREVIOUS BULLETINS.

The Nexlab PA Page
The Nexlab NJ Page
The Nexlab DE Page
The Nexlab MD Page Main Text Page